Volver al catálogo

IRIDIUM 73

ActivoComunicacionesPO
NORAD 25344·PAYLOAD·🇺🇸 United States

Lanzado May 17, 1998 desde Vandenberg Space Force Base

Loading…

Próximos Pases (próximas 24 horas)

TLE

ActualizadoSource: Space-Track

Época: Sep 14, 2026, 14:44 UTC

1 25344U 98032C   26257.61432670  .00000358  00000-0  82967-4 0  9993
2 25344  86.4432 213.7068 0001727  88.6282 271.5122 14.52273858496504

Sigue IRIDIUM 73 en tiempo real con AllMySat

Download on the App Store